Location: Igloolik
(69.3800°N, 81.8000°W)
Time: 14:25:03
(UTC-06:00)

Amateur Radio Satellites - All Passes

Search period start: 22 January 2017 13:55
Search period end: 23 January 2017 13:55
Location: Igloolik, 69.3800°N, 81.8000°W

Satellite Date Start Highest point End Downlink Frequencies (MHz)
Time Altitude Azimuth
CUBEBUG 1 22 Jan 13:56:41 14:00:41 36° 316° (NW) 14:04:39 437.445
AO-7 22 Jan 13:58:28 14:06:44 58° 253° (WSW) 14:15:01 29.400- 29.500
Oscar 11 22 Jan 14:02:49 14:05:31 16° 358° (N) 14:08:12 145.826/435.025
NOAA 18 22 Jan 14:04:34 14:09:32 36° 31° (NNE) 14:14:29 137.9125
AIST 1 22 Jan 14:04:40 14:09:02 87° 286° (WNW) 14:13:24
Oscar 19 22 Jan 14:06:16 14:09:19 15° 286° (WNW) 14:12:23 437.125/150
Cosmos 2491 22 Jan 14:11:45 14:19:26 36° 285° (WNW) 14:27:08 435.465 / 435.565
DOVE 4 22 Jan 14:13:00 14:17:06 32° 42° (NE) 14:21:01 437.250
AISAT 22 Jan 14:19:07 14:23:09 36° 317° (NW) 14:27:11 437.250
50 SAT 22 Jan 14:20:08 14:23:17 29° 315° (NW) 14:26:25 437.505
Cosmos 2504 22 Jan 14:22:07 14:30:20 68° 100° (E) 14:37:59 435.465 / 435.565
ITUPSAT 1 22 Jan 14:23:49 14:28:29 46° 101° (ESE) 14:33:08 437.325
O/OREOS (USA 219) 22 Jan 14:26:09 14:30:07 31° 240° (WSW) 14:34:06 437.305
AO-85 22 Jan 14:26:57 14:30:28 24° 143° (SE) 14:33:49 145.980
DANDE 22 Jan 14:28:44 14:35:32 54° 262° (W) 14:43:27 436.750
CUBEBUG 2 22 Jan 14:29:03 14:31:44 17° 16° (NNE) 14:34:28 437.445
CUTE 1.7 + AOD 2 22 Jan 14:29:47 14:32:55 20° 25° (NNE) 14:36:03 437.475
MOZHAYETS 4 22 Jan 14:31:52 14:36:01 31° 91° (E) 14:40:10
YUBILEINY 22 Jan 14:33:46 14:42:40 89° 290° (WNW) 14:51:36 435.215
CUTE-I 22 Jan 14:37:17 14:42:23 49° 46° (NE) 14:47:32 437.470
Gurwin Techsat 1B 22 Jan 14:38:46 14:41:53 16° 287° (WNW) 14:45:02 435.225
DELFI C3 22 Jan 14:38:55 14:41:02 14° 357° (N) 14:43:10 145.870
FUNcube-1 22 Jan 14:41:54 14:44:30 16° 8° (N) 14:47:08 145.935
TISAT 1 22 Jan 14:47:36 14:51:44 61° 303° (WNW) 14:55:52 437.305
LilacSat-2 22 Jan 14:49:32 14:53:06 39° 51° (NE) 14:56:43 437.200
ESTCUBE 1 22 Jan 14:51:13 14:54:49 23° 334° (NNW) 14:58:24 437.505/2401.250
ITAMSAT 1 22 Jan 14:51:48 14:56:08 26° 273° (W) 15:00:30 435.822/435.867
M-CUBED/EXP-1 PRIME 22 Jan 14:52:10 14:52:51 10° 88° (E) 14:53:32 437.505
UWE-3 22 Jan 14:52:24 14:55:11 17° 17° (NNE) 14:58:00 435.000/436.395/437.385
VELOX 1 22 Jan 14:52:26 14:56:14 29° 325° (NW) 15:00:02 145.980
Cosmos 2499 22 Jan 14:53:00 14:54:04 10° 38° (NE) 14:55:08 435.465 / 435.565
KKS-1 22 Jan 14:55:02 14:58:29 21° 86° (E) 15:01:54 437.445
BEESAT 22 Jan 14:56:59 15:01:48 67° 109° (ESE) 15:06:35 436.000
HUMSAT D 22 Jan 14:57:14 14:59:45 16° 355° (N) 15:02:18 437.325/437.525
CUSAT 1 22 Jan 14:58:31 15:04:55 29° 284° (WNW) 15:11:23 437.405
CANX-2 22 Jan 14:58:52 15:02:21 24° 33° (NNE) 15:05:50 2200.000
SWISSCUBE 22 Jan 14:58:53 15:03:43 72° 110° (ESE) 15:08:32 437.505
BY70-1 22 Jan 15:02:19 15:03:34 12° 344° (NNW) 15:04:49 436.1900
SPROUT 22 Jan 15:03:53 15:07:27 26° 325° (NW) 15:11:00 437.525
HO-68 22 Jan 15:04:07 15:11:01 50° 32° (NNE) 15:17:53 435.675
SEEDS 22 Jan 15:05:18 15:08:35 22° 30° (NNE) 15:11:53 437.485
ZACube-1 22 Jan 15:05:55 15:08:41 17° 15° (NNE) 15:11:29 437.345
COMPASS 1 22 Jan 15:06:29 15:09:34 20° 26° (NNE) 15:12:40 437.405
UKube-1 22 Jan 15:11:10 15:15:04 33° 319° (NW) 15:18:57 .
AAUSAT CUBESAT 2 22 Jan 15:15:23 15:18:26 20° 26° (NNE) 15:21:29 437.432
HORYU 2 22 Jan 15:16:26 15:20:53 83° 246° (WSW) 15:25:22 437.375
DX 1 22 Jan 15:16:47 15:20:34 30° 323° (NW) 15:24:21 434.975-435.025
Cubesat XI-IV 22 Jan 15:21:01 15:26:18 69° 56° (NE) 15:31:38 437.490
NOAA 15 22 Jan 15:21:32 15:26:51 72° 57° (ENE) 15:32:11 137.62
GOMX 1 22 Jan 15:22:25 15:27:36 90° 347° (NNW) 15:32:26 467.674
CUBESAT XI-V 22 Jan 15:23:48 15:27:39 24° 85° (E) 15:31:27 437.345
SO-50 22 Jan 15:24:14 15:26:14 13° 238° (WSW) 15:28:14 436.795
CINEMA 3 22 Jan 15:24:51 15:28:37 32° 44° (NE) 15:32:22 145.822/145.860
AUBIESAT-1 22 Jan 15:25:49 15:27:54 15° 94° (E) 15:29:56 437.475
BRITE-PL 22 Jan 15:30:24 15:35:58 59° 257° (WSW) 15:41:16 437.365/2234.400
CUBEBUG 1 22 Jan 15:32:56 15:36:07 20° 339° (NNW) 15:39:16 437.445
GONETS M04 22 Jan 15:35:25 15:40:15 16° 43° (NE) 15:45:06
Oscar 11 22 Jan 15:37:19 15:40:26 20° 22° (NNE) 15:43:35 145.826/435.025
STARS 22 Jan 15:41:39 15:45:18 25° 89° (E) 15:48:55 437.465
AIST 1 22 Jan 15:43:16 15:47:11 32° 315° (NW) 15:51:06
NOAA 18 22 Jan 15:44:15 15:49:43 70° 54° (NE) 15:55:11 137.9125
DOVE 4 22 Jan 15:49:48 15:54:30 80° 63° (ENE) 15:58:57 437.250
50 SAT 22 Jan 15:53:34 15:55:39 15° 337° (NNW) 15:57:45 437.505
AO-7 22 Jan 15:54:34 16:01:26 27° 280° (W) 16:08:20 29.400- 29.500
AISAT 22 Jan 15:55:31 15:58:46 20° 340° (NNW) 16:02:01 437.250
BEESAT 3 22 Jan 15:56:22 15:58:33 14° 129° (SE) 16:00:44 437.485
ITUPSAT 1 22 Jan 16:01:47 16:06:35 65° 304° (NW) 16:11:22 437.325
CUBEBUG 2 22 Jan 16:03:49 16:07:23 28° 39° (NE) 16:11:01 437.445
CUTE 1.7 + AOD 2 22 Jan 16:03:58 16:07:57 38° 47° (NE) 16:11:57 437.475
AO-85 22 Jan 16:06:11 16:10:13 40° 166° (SSE) 16:14:01 145.980
O/OREOS (USA 219) 22 Jan 16:07:07 16:08:19 11° 262° (W) 16:09:32 437.305
Cosmos 2491 22 Jan 16:08:34 16:13:45 18° 313° (NW) 16:18:57 435.465 / 435.565
MOZHAYETS 4 22 Jan 16:09:04 16:13:45 90° 55° (NE) 16:18:26
DANDE 22 Jan 16:11:38 16:17:12 25° 285° (WNW) 16:23:25 436.750
DELFI C3 22 Jan 16:12:03 16:14:38 17° 20° (NNE) 16:17:13 145.870
Cosmos 2504 22 Jan 16:15:50 16:24:02 62° 305° (NW) 16:31:41 435.465 / 435.565
FUNcube-1 22 Jan 16:16:18 16:19:38 23° 32° (NNE) 16:23:03 145.935
CUTE-I 22 Jan 16:17:03 16:22:23 73° 249° (WSW) 16:27:46 437.470
TISAT 1 22 Jan 16:23:24 16:26:53 26° 325° (NW) 16:30:21 437.305
LilacSat-2 22 Jan 16:23:32 16:27:19 63° 253° (WSW) 16:31:11 437.200
M-CUBED/EXP-1 PRIME 22 Jan 16:25:05 16:28:26 37° 110° (ESE) 16:31:36 437.505
UWE-3 22 Jan 16:27:04 16:30:41 29° 40° (NE) 16:34:23 435.000/436.395/437.385
ESTCUBE 1 22 Jan 16:27:25 16:30:29 18° 357° (N) 16:33:33 437.505/2401.250
VELOX 1 22 Jan 16:28:39 16:31:42 19° 348° (NNW) 16:34:46 145.980
STRAND 1 22 Jan 16:30:19 16:30:54 10° 64° (ENE) 16:31:29 437.568
HUMSAT D 22 Jan 16:31:19 16:34:09 18° 18° (NNE) 16:37:00 437.325/437.525
KKS-1 22 Jan 16:31:25 16:35:52 65° 108° (ESE) 16:40:17 437.445
YUBILEINY 22 Jan 16:31:55 16:40:30 50° 320° (NW) 16:49:07 435.215
BY70-1 22 Jan 16:32:01 16:32:40 10° 6° (N) 16:33:19 436.1900
CANX-2 22 Jan 16:33:25 16:37:37 54° 56° (NE) 16:41:51 2200.000
BEESAT 22 Jan 16:34:56 16:39:33 48° 312° (NW) 16:44:10 436.000
SWISSCUBE 22 Jan 16:36:51 16:41:26 45° 313° (NW) 16:46:01 437.505
Cosmos 2499 22 Jan 16:38:41 16:44:27 23° 65° (ENE) 16:49:57 435.465 / 435.565
SEEDS 22 Jan 16:39:31 16:43:35 46° 52° (NE) 16:47:42 437.485
SPROUT 22 Jan 16:39:37 16:42:22 17° 348° (NNW) 16:45:06 437.525
ZACube-1 22 Jan 16:40:23 16:43:58 28° 38° (NE) 16:47:39 437.345
COMPASS 1 22 Jan 16:40:24 16:44:20 39° 49° (NE) 16:48:18 437.405
CUSAT 1 22 Jan 16:41:05 16:44:39 14° 308° (NW) 16:48:15 437.405
BEESAT 2 22 Jan 16:45:48 16:48:25 17° 133° (SE) 16:51:03 435.950
UKube-1 22 Jan 16:47:07 16:50:14 20° 342° (NNW) 16:53:21 .
AAUSAT CUBESAT 2 22 Jan 16:49:12 16:53:07 38° 48° (NE) 16:57:02 437.432
HO-68 22 Jan 16:51:10 16:58:24 86° 58° (ENE) 17:05:40 435.675
DX 1 22 Jan 16:52:46 16:55:49 19° 347° (NNW) 16:58:52 434.975-435.025
HORYU 2 22 Jan 16:54:16 16:58:04 27° 269° (W) 17:01:53 437.375
AUBIESAT-1 22 Jan 16:59:40 17:03:10 54° 117° (ESE) 17:06:29 437.475
CUBESAT XI-V 22 Jan 17:01:06 17:05:51 70° 108° (ESE) 17:10:33 437.345
CINEMA 3 22 Jan 17:01:16 17:05:32 90° 63° (ENE) 17:09:43 145.822/145.860
Cubesat XI-IV 22 Jan 17:01:33 17:06:43 48° 259° (W) 17:11:53 437.490
GOMX 1 22 Jan 17:01:35 17:06:14 33° 268° (W) 17:10:37 467.674
NOAA 15 22 Jan 17:01:51 17:06:59 46° 260° (W) 17:12:08 137.62
CUBEBUG 1 22 Jan 17:08:26 17:11:14 17° 2° (N) 17:14:00 437.445
BRITE-PL 22 Jan 17:11:05 17:15:28 23° 280° (W) 17:19:42 437.365/2234.400
Oscar 11 22 Jan 17:11:45 17:15:43 35° 44° (NE) 17:19:42 145.826/435.025
STARS 22 Jan 17:17:55 17:22:19 77° 112° (ESE) 17:26:43 437.465
AIST 1 22 Jan 17:23:08 17:26:05 18° 340° (NNW) 17:29:02
NOAA 18 22 Jan 17:25:23 17:30:42 49° 258° (WSW) 17:36:03 137.9125
50 SAT 22 Jan 17:26:24 17:27:43 12° 360° (N) 17:29:03 437.505
GONETS M04 22 Jan 17:26:54 17:34:23 33° 72° (ENE) 17:41:53
DOVE 4 22 Jan 17:28:21 17:32:38 34° 266° (W) 17:36:43 437.250
AISAT 22 Jan 17:31:09 17:34:05 18° 4° (N) 17:37:00 437.250
BEESAT 3 22 Jan 17:31:44 17:35:13 30° 152° (SSE) 17:38:45 437.485
CUTE 1.7 + AOD 2 22 Jan 17:39:19 17:43:37 77° 250° (WSW) 17:47:58 437.475
CUBEBUG 2 22 Jan 17:39:28 17:43:37 72° 62° (ENE) 17:47:49 437.445
ITUPSAT 1 22 Jan 17:39:43 17:43:55 31° 327° (NNW) 17:48:07 437.325
DELFI C3 22 Jan 17:45:00 17:48:33 30° 43° (NE) 17:52:05 145.870
AO-85 22 Jan 17:46:11 17:50:10 43° 189° (S) 17:53:57 145.980
MOZHAYETS 4 22 Jan 17:46:24 17:50:39 36° 317° (NW) 17:54:55
FUNcube-1 22 Jan 17:51:12 17:55:16 51° 54° (NE) 17:59:26 145.935
AO-7 22 Jan 17:55:16 17:57:50 11° 309° (NW) 18:00:25 29.400- 29.500
DANDE 22 Jan 17:55:45 17:57:47 11° 308° (NW) 17:59:54 436.750
CUTE-I 22 Jan 17:58:47 18:03:19 27° 273° (W) 18:07:52 437.470
TISAT 1 22 Jan 17:58:51 18:01:31 17° 348° (NNW) 18:04:11 437.305
M-CUBED/EXP-1 PRIME 22 Jan 17:59:37 18:03:12 62° 314° (NW) 18:06:33 437.505
LilacSat-2 22 Jan 17:59:39 18:02:22 18° 276° (W) 18:05:06 437.200
BY70-1 22 Jan 17:59:50 18:01:50 15° 28° (NNE) 18:03:51 436.1900
UWE-3 22 Jan 18:02:36 18:06:47 76° 62° (ENE) 18:11:02 435.000/436.395/437.385
ESTCUBE 1 22 Jan 18:02:40 18:06:06 21° 21° (NNE) 18:09:32 437.505/2401.250
VELOX 1 22 Jan 18:03:56 18:06:59 19° 11° (NNE) 18:10:02 145.980
HUMSAT D 22 Jan 18:05:08 18:08:50 30° 41° (NE) 18:12:35 437.325/437.525
STRAND 1 22 Jan 18:07:28 18:11:55 28° 89° (E) 18:16:21 437.568
KKS-1 22 Jan 18:08:09 18:12:24 45° 311° (NW) 18:16:38 437.445
CANX-2 22 Jan 18:09:25 18:13:36 50° 259° (WSW) 18:17:50 2200.000
Cosmos 2504 22 Jan 18:11:32 18:18:58 37° 334° (NNW) 18:25:58 435.465 / 435.565
BEESAT 22 Jan 18:12:42 18:16:38 26° 335° (NNW) 18:20:33 436.000
SPROUT 22 Jan 18:14:21 18:17:05 17° 11° (N) 18:19:48 437.525
SWISSCUBE 22 Jan 18:14:36 18:18:29 25° 337° (NNW) 18:22:22 437.505
SEEDS 22 Jan 18:15:03 18:19:17 60° 255° (WSW) 18:23:33 437.485
COMPASS 1 22 Jan 18:15:32 18:19:45 73° 251° (WSW) 18:24:02 437.405
ZACube-1 22 Jan 18:15:40 18:19:50 70° 61° (ENE) 18:24:06 437.345
BEESAT 2 22 Jan 18:21:42 18:25:21 33° 155° (SSE) 18:29:01 435.950
UKube-1 22 Jan 18:22:15 18:25:07 18° 5° (N) 18:28:00 .
AAUSAT CUBESAT 2 22 Jan 18:24:14 18:28:27 75° 252° (WSW) 18:32:41 437.432
DX 1 22 Jan 18:27:52 18:30:50 18° 10° (N) 18:33:49 434.975-435.025
Cosmos 2499 22 Jan 18:28:32 18:36:09 52° 91° (E) 18:43:15 435.465 / 435.565
YUBILEINY 22 Jan 18:31:29 18:39:34 37° 350° (N) 18:47:38 435.215
AUBIESAT-1 22 Jan 18:34:12 18:37:39 46° 320° (NW) 18:40:56 437.475
CUBESAT XI-V 22 Jan 18:38:39 18:43:10 45° 311° (NW) 18:47:38 437.345
CINEMA 3 22 Jan 18:39:33 18:43:14 28° 269° (W) 18:46:52 145.822/145.860
HO-68 22 Jan 18:39:56 18:46:50 46° 262° (W) 18:53:45 435.675
CUBEBUG 1 22 Jan 18:43:01 18:46:22 22° 26° (NNE) 18:49:44 437.445
GOMX 1 22 Jan 18:43:56 18:45:48 12° 291° (WNW) 18:47:38 467.674
Cubesat XI-IV 22 Jan 18:44:29 18:48:06 18° 283° (WNW) 18:51:44 437.490
NOAA 15 22 Jan 18:44:37 18:48:07 17° 284° (WNW) 18:51:38 137.62
Oscar 11 22 Jan 18:47:14 18:51:36 87° 242° (WSW) 18:56:01 145.826/435.025
STARS 22 Jan 18:54:27 18:58:32 39° 314° (NW) 19:02:36 437.465
50 SAT 22 Jan 18:57:41 18:59:47 15° 23° (NNE) 19:01:53 437.505
AIST 1 22 Jan 19:02:45 19:05:23 15° 6° (N) 19:07:58
AISAT 22 Jan 19:05:56 19:09:27 23° 27° (NNE) 19:12:57 437.250
AIST 2 22 Jan 19:06:10 19:08:34 15° 128° (SE) 19:10:59 435.215
BEESAT 3 22 Jan 19:08:31 19:12:19 44° 175° (S) 19:16:08 437.485
NOAA 18 22 Jan 19:08:54 19:12:43 19° 282° (WNW) 19:16:31 137.9125
DOVE 4 22 Jan 19:10:03 19:11:41 12° 289° (WNW) 19:13:18 437.250
CUTE 1.7 + AOD 2 22 Jan 19:16:35 19:20:08 24° 273° (W) 19:23:42 437.475
CUBEBUG 2 22 Jan 19:16:48 19:20:37 35° 265° (W) 19:24:31 437.445
ITUPSAT 1 22 Jan 19:17:10 19:20:45 21° 350° (N) 19:24:20 437.325
DELFI C3 22 Jan 19:18:58 19:23:01 82° 67° (ENE) 19:27:05 145.870
GONETS M04 22 Jan 19:21:21 19:30:01 70° 99° (E) 19:38:47
MOZHAYETS 4 22 Jan 19:23:28 19:26:56 21° 340° (NNW) 19:30:25
AO-85 22 Jan 19:26:26 19:29:57 28° 212° (SSW) 19:33:20 145.980
FUNcube-1 22 Jan 19:27:31 19:31:36 52° 257° (WSW) 19:35:48 145.935
BY70-1 22 Jan 19:28:20 19:31:21 32° 49° (NE) 19:34:27 436.1900
PRISM 22 Jan 19:30:57 19:33:23 15° 80° (E) 19:35:47 437.425
TISAT 1 22 Jan 19:33:18 19:35:58 17° 12° (NNE) 19:38:38 437.305
M-CUBED/EXP-1 PRIME 22 Jan 19:34:09 19:37:19 28° 337° (NNW) 19:40:18 437.505
ANTELSAT 22 Jan 19:34:53 19:35:04 10° 69° (ENE) 19:35:16 437.575/2403.000
ESTCUBE 1 22 Jan 19:37:51 19:42:04 38° 44° (NE) 19:46:18 437.505/2401.250
VELOX 1 22 Jan 19:38:40 19:42:26 28° 35° (NE) 19:46:13 145.980
UWE-3 22 Jan 19:39:52 19:43:40 33° 266° (W) 19:47:32 435.000/436.395/437.385
HUMSAT D 22 Jan 19:39:55 19:44:06 80° 63° (ENE) 19:48:22 437.325/437.525
KKS-1 22 Jan 19:44:45 19:48:16 23° 334° (NNW) 19:51:47 437.445
STRAND 1 22 Jan 19:46:42 19:51:52 77° 112° (ESE) 19:57:03 437.568
CANX-2 22 Jan 19:47:43 19:50:28 16° 281° (WNW) 19:53:14 2200.000
SPROUT 22 Jan 19:48:28 19:51:58 25° 34° (NE) 19:55:28 437.525
BEESAT 22 Jan 19:49:49 19:53:18 20° 359° (N) 19:56:47 436.000
SWISSCUBE 22 Jan 19:51:39 19:55:09 20° 0° (N) 19:58:38 437.505
ZACube-1 22 Jan 19:52:35 19:56:28 36° 264° (W) 20:00:27 437.345
COMPASS 1 22 Jan 19:52:36 19:56:00 23° 274° (W) 19:59:25 437.405
SEEDS 22 Jan 19:52:42 19:55:50 19° 277° (W) 19:58:58 437.485
UKube-1 22 Jan 19:56:37 20:00:06 24° 29° (NNE) 20:03:34 .
BEESAT 2 22 Jan 19:58:48 20:02:39 45° 178° (S) 20:06:32 435.950
AAUSAT CUBESAT 2 22 Jan 20:01:12 20:04:36 23° 273° (W) 20:08:01 437.432
DX 1 22 Jan 20:02:21 20:06:02 27° 33° (NNE) 20:09:42 434.975-435.025
Cosmos 2504 22 Jan 20:07:41 20:14:41 32° 4° (N) 20:21:17 435.465 / 435.565
AUBIESAT-1 22 Jan 20:08:37 20:11:36 24° 343° (NNW) 20:14:27 437.475
RS-15 22 Jan 20:09:15 20:13:52 13° 78° (ENE) 20:18:30 29.354- 29.394
CUBESAT XI-V 22 Jan 20:16:02 20:19:47 24° 334° (NNW) 20:23:31 437.345
CUBEBUG 1 22 Jan 20:17:46 20:21:55 43° 49° (NE) 20:26:04 437.445
Cosmos 2499 22 Jan 20:21:12 20:29:10 76° 297° (WNW) 20:36:36 435.465 / 435.565
Oscar 11 22 Jan 20:24:33 20:28:19 28° 270° (W) 20:32:08 145.826/435.025
JAS-2 22 Jan 20:27:29 20:32:28 21° 72° (ENE) 20:37:46 435.910
50 SAT 22 Jan 20:29:01 20:32:10 29° 45° (NE) 20:35:19 437.505
YUBILEINY 22 Jan 20:30:44 20:38:59 40° 22° (NNE) 20:47:11 435.215
STARS 22 Jan 20:30:47 20:34:07 21° 337° (NNW) 20:37:25 437.465
HO-68 22 Jan 20:31:27 20:36:32 20° 288° (WNW) 20:41:39 435.675
UNISAT 6 22 Jan 20:40:57 20:44:25 22° 86° (E) 20:47:56 437.425
AISAT 22 Jan 20:40:58 20:45:14 46° 50° (NE) 20:49:29 437.250
AIST 1 22 Jan 20:41:08 20:44:32 22° 32° (NNE) 20:47:55
AIST 2 22 Jan 20:42:20 20:46:03 31° 151° (SSE) 20:49:50 435.215
BEESAT 3 22 Jan 20:45:47 20:49:30 38° 198° (SSW) 20:53:14 437.485
TIGRISAT 22 Jan 20:53:27 20:57:04 24° 88° (E) 21:00:44 435.000
ITUPSAT 1 22 Jan 20:53:45 20:57:24 22° 14° (NNE) 21:01:05 437.325
DELFI C3 22 Jan 20:54:41 20:58:16 30° 267° (W) 21:01:52 145.870
CUBEBUG 2 22 Jan 20:57:14 20:58:33 11° 288° (WNW) 20:59:53 437.445
BY70-1 22 Jan 20:58:07 21:01:27 71° 251° (WSW) 21:04:52 436.1900
MOZHAYETS 4 22 Jan 20:59:45 21:02:53 18° 4° (N) 21:06:03
PRISM 22 Jan 21:05:39 21:09:41 46° 102° (ESE) 21:13:41 437.425
FUNcube-1 22 Jan 21:06:08 21:08:51 17° 281° (W) 21:11:37 145.935
TISAT 1 22 Jan 21:07:09 21:10:36 26° 35° (NE) 21:14:04 437.305
AO-85 22 Jan 21:07:40 21:09:14 12° 235° (SW) 21:10:47 145.980
M-CUBED/EXP-1 PRIME 22 Jan 21:08:12 21:11:06 21° 359° (N) 21:13:51 437.505
ANTELSAT 22 Jan 21:09:19 21:13:14 30° 93° (E) 21:17:11 437.575/2403.000
VELOX 1 22 Jan 21:14:01 21:18:25 63° 57° (ENE) 21:22:49 145.980
ESTCUBE 1 22 Jan 21:14:05 21:18:39 85° 245° (WSW) 21:23:16 437.505/2401.250
HUMSAT D 22 Jan 21:16:24 21:20:10 32° 267° (W) 21:23:59 437.325/437.525
GONETS M04 22 Jan 21:18:32 21:27:14 63° 307° (NW) 21:36:03
UWE-3 22 Jan 21:20:28 21:21:29 11° 289° (WNW) 21:22:31 435.000/436.395/437.385
KKS-1 22 Jan 21:20:45 21:23:44 18° 357° (N) 21:26:44 437.445
SPROUT 22 Jan 21:23:10 21:27:21 58° 57° (ENE) 21:31:34 437.525
STRAND 1 22 Jan 21:26:03 21:30:57 46° 315° (NW) 21:35:51 437.568
BEESAT 22 Jan 21:26:07 21:29:57 25° 22° (NNE) 21:33:48 436.000
SWISSCUBE 22 Jan 21:27:55 21:31:49 25° 24° (NNE) 21:35:43 437.505
UKube-1 22 Jan 21:31:19 21:35:30 49° 51° (NE) 21:39:43 .
ZACube-1 22 Jan 21:32:25 21:34:02 12° 287° (WNW) 21:35:41 437.345
BEESAT 2 22 Jan 21:36:16 21:40:00 36° 201° (SSW) 21:43:44 435.950
QB50P1 22 Jan 21:36:44 21:38:50 13° 76° (ENE) 21:40:57 145.935-145.965
DX 1 22 Jan 21:37:23 21:41:42 60° 56° (ENE) 21:46:02 434.975-435.025
POLYITAN 1 22 Jan 21:41:38 21:43:58 14° 78° (ENE) 21:46:18 437.675
AUBIESAT-1 22 Jan 21:42:25 21:45:17 21° 5° (N) 21:48:01 437.475
QB50P2 22 Jan 21:42:55 21:45:24 15° 79° (ENE) 21:47:52 145.880/145.840
Cosmos 2491 22 Jan 21:47:29 21:52:16 16° 43° (NE) 21:57:03 435.465 / 435.565
CUBESAT XI-V 22 Jan 21:52:45 21:55:59 19° 358° (N) 21:59:13 437.345
CUBEBUG 1 22 Jan 21:53:44 21:58:08 69° 251° (WSW) 22:02:31 437.445
50 SAT 22 Jan 22:01:30 22:05:07 89° 245° (WSW) 22:08:45 437.505
Cosmos 2504 22 Jan 22:02:53 22:10:15 42° 34° (NE) 22:17:11 435.465 / 435.565
POPSAT HIP 1 22 Jan 22:03:31 22:06:29 18° 83° (E) 22:09:27 437.405
STARS 22 Jan 22:06:26 22:09:20 18° 1° (N) 22:12:13 437.465
DUCHIFAT 1 22 Jan 22:10:56 22:13:54 18° 83° (E) 22:16:52 145.980
RS-15 22 Jan 22:11:58 22:21:49 31° 109° (ESE) 22:31:50 29.354- 29.394
JAS-2 22 Jan 22:12:41 22:19:12 47° 96° (E) 22:26:24 435.910
Cosmos 2499 22 Jan 22:16:07 22:23:27 41° 325° (NW) 22:30:21 435.465 / 435.565
AISAT 22 Jan 22:17:16 22:21:41 63° 252° (WSW) 22:26:06 437.250
UNISAT 6 22 Jan 22:17:31 22:21:55 68° 109° (ESE) 22:26:22 437.425
NANOSAT C BR1 22 Jan 22:17:50 22:21:03 21° 86° (E) 22:24:17 145.865
AIST 1 22 Jan 22:18:54 22:23:07 49° 56° (NE) 22:27:16
AIST 2 22 Jan 22:19:58 22:24:01 45° 173° (S) 22:28:04 435.215
BEESAT 3 22 Jan 22:23:20 22:26:25 22° 220° (SW) 22:29:31 437.485
YUBILEINY 22 Jan 22:28:50 22:37:38 62° 51° (NE) 22:46:23 435.215
BY70-1 22 Jan 22:29:51 22:32:16 18° 272° (W) 22:34:45 436.1900
ITUPSAT 1 22 Jan 22:29:59 22:34:19 34° 38° (NE) 22:38:39 437.325
TIGRISAT 22 Jan 22:30:03 22:34:26 76° 110° (ESE) 22:38:55 435.000
BUGSAT 1 22 Jan 22:34:57 22:37:11 14° 79° (E) 22:39:25 437.445
MOZHAYETS 4 22 Jan 22:35:13 22:38:55 24° 27° (NNE) 22:42:38
PRISM 22 Jan 22:41:03 22:45:09 56° 304° (NW) 22:49:11 437.425
TISAT 1 22 Jan 22:41:37 22:45:44 60° 58° (ENE) 22:49:52 437.305
Oscar 19 22 Jan 22:41:37 22:43:09 11° 66° (ENE) 22:44:40 437.125/150
M-CUBED/EXP-1 PRIME 22 Jan 22:41:37 22:44:53 27° 22° (NNE) 22:47:57 437.505
ANTELSAT 22 Jan 22:46:03 22:50:27 88° 296° (WNW) 22:54:57 437.575/2403.000
VELOX 1 22 Jan 22:50:51 22:55:07 44° 259° (W) 22:59:24 145.980
ESTCUBE 1 22 Jan 22:52:07 22:56:05 28° 269° (W) 23:00:04 437.505/2401.250
KKS-1 22 Jan 22:55:49 22:59:09 21° 21° (NNE) 23:02:30 437.445
HUMSAT D 22 Jan 22:56:26 22:57:08 10° 290° (WNW) 22:57:50 437.325/437.525
SPROUT 22 Jan 22:59:22 23:03:29 45° 259° (W) 23:07:36 437.525
BEESAT 22 Jan 23:02:26 23:06:58 44° 46° (NE) 23:11:31 436.000
SWISSCUBE 22 Jan 23:04:18 23:08:52 46° 47° (NE) 23:13:29 437.505
STRAND 1 22 Jan 23:05:07 23:09:20 27° 339° (NNW) 23:13:34 437.568
UKube-1 22 Jan 23:07:19 23:11:36 57° 254° (WSW) 23:15:54 .
QB50P1 22 Jan 23:11:43 23:15:45 41° 99° (E) 23:19:46 145.935-145.965
DX 1 22 Jan 23:13:53 23:18:06 46° 258° (WSW) 23:22:20 434.975-435.025
BEESAT 2 22 Jan 23:14:05 23:17:00 19° 224° (SW) 23:19:56 435.950
CUSAT 1 22 Jan 23:15:31 23:18:32 13° 50° (NE) 23:21:42 437.405
AUBIESAT-1 22 Jan 23:15:42 23:19:04 30° 28° (NNE) 23:22:14 437.475
POLYITAN 1 22 Jan 23:16:46 23:20:51 44° 100° (E) 23:24:55 437.675
Gurwin Techsat 1B 22 Jan 23:16:50 23:19:05 12° 68° (ENE) 23:21:20 435.225
GONETS M04 22 Jan 23:17:41 23:25:52 40° 337° (NNW) 23:34:06
QB50P2 22 Jan 23:18:08 23:22:15 46° 102° (ESE) 23:26:20 145.880/145.840
CUBESAT XI-V 22 Jan 23:28:33 23:32:09 22° 21° (NNE) 23:35:46 437.345
CUBEBUG 1 22 Jan 23:31:42 23:35:11 22° 274° (W) 23:38:39 437.445
50 SAT 22 Jan 23:35:50 23:38:48 24° 268° (W) 23:41:47 437.505
POPSAT HIP 1 22 Jan 23:38:58 23:43:09 57° 105° (ESE) 23:47:20 437.405
Cosmos 2491 22 Jan 23:38:59 23:46:26 33° 72° (ENE) 23:53:54 435.465 / 435.565
STARS 22 Jan 23:41:12 23:44:34 22° 24° (NNE) 23:47:57 437.465
DUCHIFAT 1 22 Jan 23:46:17 23:50:27 58° 106° (ESE) 23:54:37 145.980
AO-7 22 Jan 23:50:38 23:53:08 11° 51° (NE) 23:55:38 29.400- 29.500
NANOSAT C BR1 22 Jan 23:53:20 23:57:33 66° 108° (ESE) 00:01:45 145.865
UNISAT 6 22 Jan 23:54:26 23:58:34 43° 310° (NW) 00:02:47 437.425
AISAT 22 Jan 23:55:37 23:58:59 21° 275° (W) 00:02:22 437.250
PCSat 22 Jan 23:55:53 23:59:54 21° 120° (ESE) 00:03:54 145.827
AIST 1 22 Jan 23:56:38 00:00:51 53° 260° (W) 00:05:01
Cosmos 2504 22 Jan 23:57:03 00:04:51 77° 63° (ENE) 00:12:09 435.465 / 435.565
AIST 2 22 Jan 23:58:04 00:02:03 41° 197° (SSW) 00:06:04 435.215
JAS-2 22 Jan 23:58:06 00:04:48 84° 299° (WNW) 00:12:19 435.910
TIGRISAT 23 Jan 00:06:56 00:11:00 39° 313° (NW) 00:15:09 435.000
ITUPSAT 1 23 Jan 00:06:59 00:11:47 79° 60° (ENE) 00:16:37 437.325
BUGSAT 1 23 Jan 00:09:40 00:13:34 45° 102° (ESE) 00:17:28 437.445
MOZHAYETS 4 23 Jan 00:10:56 00:15:22 47° 50° (NE) 00:19:50
Cosmos 2499 23 Jan 00:12:02 00:18:41 31° 354° (N) 00:25:01 435.465 / 435.565
M-CUBED/EXP-1 PRIME 23 Jan 00:15:06 00:18:58 53° 44° (NE) 00:22:33 437.505
PRISM 23 Jan 00:16:30 00:19:54 25° 327° (NNW) 00:23:16 437.425
TISAT 1 23 Jan 00:17:36 00:21:36 43° 260° (W) 00:25:37 437.305
Oscar 19 23 Jan 00:19:38 00:24:14 30° 90° (E) 00:28:48 437.125/150
RS-15 23 Jan 00:20:14 00:31:51 55° 139° (SE) 00:43:39 29.354- 29.394
ANTELSAT 23 Jan 00:22:57 00:26:54 34° 317° (NW) 00:30:56 437.575/2403.000
YUBILEINY 23 Jan 00:26:06 00:34:55 72° 260° (W) 00:43:40 435.215
VELOX 1 23 Jan 00:30:11 00:32:43 15° 283° (WNW) 00:35:16 145.980
KKS-1 23 Jan 00:30:48 00:34:55 38° 44° (NE) 00:39:02 437.445
DANDE 23 Jan 00:33:09 00:35:04 12° 52° (NE) 00:37:08 436.750
SPROUT 23 Jan 00:38:00 00:40:28 15° 282° (WNW) 00:42:56 437.525
BEESAT 23 Jan 00:39:51 00:44:38 75° 248° (WSW) 00:49:28 436.000
SWISSCUBE 23 Jan 00:41:50 00:46:37 70° 250° (WSW) 00:51:26 437.505
STRAND 1 23 Jan 00:43:27 00:47:22 23° 3° (N) 00:51:18 437.568
UKube-1 23 Jan 00:45:27 00:48:32 19° 276° (W) 00:51:37 .
QB50P1 23 Jan 00:47:35 00:51:47 63° 301° (WNW) 00:55:58 145.935-145.965
AUBIESAT-1 23 Jan 00:49:19 00:53:12 70° 49° (NE) 00:56:50 437.475
CUSAT 1 23 Jan 00:52:38 00:58:09 29° 75° (ENE) 01:04:26 437.405
POLYITAN 1 23 Jan 00:52:40 00:56:52 60° 302° (WNW) 01:01:02 437.675
DX 1 23 Jan 00:52:46 00:55:23 15° 281° (W) 00:57:59 434.975-435.025
QB50P2 23 Jan 00:54:03 00:58:13 57° 304° (NW) 01:02:22 145.880/145.840
Gurwin Techsat 1B 23 Jan 00:55:55 01:00:45 33° 92° (E) 01:05:34 435.225
CUBESAT XI-V 23 Jan 01:04:18 01:08:40 39° 45° (NE) 01:13:04 437.345
ITAMSAT 1 23 Jan 01:08:46 01:12:13 17° 77° (ENE) 01:15:40 435.822/435.867
POPSAT HIP 1 23 Jan 01:14:54 01:18:58 48° 308° (NW) 01:23:02 437.405
STARS 23 Jan 01:16:03 01:20:12 42° 47° (NE) 01:24:20 437.465
GONETS M04 23 Jan 01:17:15 01:25:16 37° 8° (N) 01:33:19
DUCHIFAT 1 23 Jan 01:22:08 01:26:10 47° 308° (NW) 01:30:12 145.980
NANOSAT C BR1 23 Jan 01:29:14 01:33:13 42° 310° (NW) 01:37:12 145.865
UNISAT 6 23 Jan 01:31:14 01:34:34 22° 333° (NNW) 01:37:58 437.425
Cosmos 2491 23 Jan 01:33:28 01:42:06 70° 99° (E) 01:50:47 435.465 / 435.565
AIST 1 23 Jan 01:34:53 01:37:39 17° 283° (WNW) 01:40:25
AIST 2 23 Jan 01:36:27 01:39:51 24° 219° (SW) 01:43:15 435.215
PCSat 23 Jan 01:37:09 01:42:17 44° 144° (SE) 01:47:26 145.827
AO-7 23 Jan 01:42:40 01:49:33 27° 80° (E) 01:56:23 29.400- 29.500
JAS-2 23 Jan 01:43:18 01:49:30 46° 322° (NW) 01:56:25 435.910
TIGRISAT 23 Jan 01:43:41 01:46:56 21° 336° (NNW) 01:50:13 435.000
BUGSAT 1 23 Jan 01:45:09 01:49:06 55° 304° (NW) 01:53:04 437.445
ITUPSAT 1 23 Jan 01:45:36 01:50:04 37° 264° (W) 01:54:33 437.325
MOZHAYETS 4 23 Jan 01:47:55 01:52:31 65° 253° (WSW) 01:57:09
M-CUBED/EXP-1 PRIME 23 Jan 01:49:38 01:53:33 51° 243° (WSW) 01:57:12 437.505
Cosmos 2504 23 Jan 01:50:43 01:58:02 50° 271° (W) 02:04:57 435.465 / 435.565
PRISM 23 Jan 01:51:32 01:54:10 17° 350° (N) 01:56:49 437.425
TISAT 1 23 Jan 01:56:07 01:58:19 14° 282° (WNW) 02:00:32 437.305
Oscar 19 23 Jan 01:59:02 02:04:17 82° 114° (ESE) 02:09:29 437.125/150
ANTELSAT 23 Jan 01:59:39 02:02:45 19° 340° (NNW) 02:05:54 437.575/2403.000
KKS-1 23 Jan 02:06:49 02:11:17 83° 247° (WSW) 02:15:46 437.445
Cosmos 2499 23 Jan 02:07:17 02:14:06 36° 25° (NNE) 02:20:36 435.465 / 435.565
DANDE 23 Jan 02:11:03 02:15:35 28° 78° (ENE) 02:21:09 436.750
BEESAT 23 Jan 02:19:10 02:23:11 26° 272° (W) 02:27:13 436.000
STRAND 1 23 Jan 02:21:05 02:25:27 29° 27° (NNE) 02:29:50 437.568
SWISSCUBE 23 Jan 02:21:20 02:25:14 24° 273° (W) 02:29:10 437.505
YUBILEINY 23 Jan 02:22:59 02:30:37 35° 287° (WNW) 02:38:14 435.215
QB50P1 23 Jan 02:23:32 02:27:04 27° 324° (NW) 02:30:37 145.935-145.965
AUBIESAT-1 23 Jan 02:24:14 02:27:54 36° 249° (WSW) 02:31:20 437.475
POLYITAN 1 23 Jan 02:28:38 02:32:08 26° 325° (NW) 02:35:39 437.675
QB50P2 23 Jan 02:30:00 02:33:29 25° 326° (NW) 02:36:57 145.880/145.840
RS-15 23 Jan 02:31:12 02:43:22 71° 169° (S) 02:55:36 29.354- 29.394
CUSAT 1 23 Jan 02:32:28 02:38:55 62° 101° (E) 02:46:36 437.405
Gurwin Techsat 1B 23 Jan 02:36:00 02:41:22 87° 115° (ESE) 02:46:44 435.225
CUBESAT XI-V 23 Jan 02:41:04 02:45:49 85° 245° (WSW) 02:50:36 437.345
ITAMSAT 1 23 Jan 02:47:57 02:53:00 47° 101° (E) 02:58:02 435.822/435.867
POPSAT HIP 1 23 Jan 02:50:49 02:54:06 23° 330° (NNW) 02:57:24 437.405
STARS 23 Jan 02:52:04 02:56:27 71° 250° (WSW) 03:00:50 437.465
DUCHIFAT 1 23 Jan 02:57:56 03:01:12 22° 331° (NNW) 03:04:27 145.980
NANOSAT C BR1 23 Jan 03:05:03 03:08:13 21° 333° (NNW) 03:11:24 145.865
UNISAT 6 23 Jan 03:07:25 03:10:09 17° 357° (N) 03:12:55 437.425
GOMX 1 23 Jan 03:10:38 03:12:25 12° 69° (ENE) 03:14:10 467.674
GONETS M04 23 Jan 03:15:50 03:24:23 49° 39° (NE) 03:32:56
TIGRISAT 23 Jan 03:19:46 03:22:28 16° 359° (N) 03:25:12 435.000
PCSat 23 Jan 03:19:53 03:25:17 67° 169° (SSE) 03:30:43 145.827
BRITE-PL 23 Jan 03:20:32 03:24:40 24° 81° (E) 03:28:33 437.365/2234.400
BUGSAT 1 23 Jan 03:20:42 03:23:56 23° 327° (NNW) 03:27:10 437.445
NOAA 15 23 Jan 03:23:34 03:24:29 10° 64° (ENE) 03:25:24 137.62
Cubesat XI-IV 23 Jan 03:25:00 03:25:57 10° 64° (ENE) 03:26:54 437.490
PRISM 23 Jan 03:25:33 03:28:18 17° 14° (NNE) 03:31:02 437.425
M-CUBED/EXP-1 PRIME 23 Jan 03:26:16 03:28:48 16° 265° (W) 03:31:14 437.505
MOZHAYETS 4 23 Jan 03:26:56 03:30:32 22° 276° (W) 03:34:10
ITUPSAT 1 23 Jan 03:27:00 03:29:18 13° 287° (WNW) 03:31:37 437.325
JAS-2 23 Jan 03:27:59 03:33:32 32° 347° (NNW) 03:39:40 435.910
Cosmos 2491 23 Jan 03:30:39 03:39:20 63° 307° (NW) 03:48:05 435.465 / 435.565
ANTELSAT 23 Jan 03:35:33 03:38:16 17° 4° (N) 03:41:02 437.575/2403.000
AO-7 23 Jan 03:35:59 03:44:16 57° 107° (ESE) 03:52:30 29.400- 29.500
Oscar 19 23 Jan 03:38:31 03:43:27 44° 317° (NW) 03:48:20 437.125/150
Cosmos 2504 23 Jan 03:44:17 03:49:46 22° 298° (WNW) 03:55:03 435.465 / 435.565
KKS-1 23 Jan 03:44:39 03:48:28 27° 269° (W) 03:52:17 437.445
DANDE 23 Jan 03:52:02 03:57:16 70° 106° (ESE) 04:04:14 436.750
NOAA 18 23 Jan 03:53:29 03:54:00 10° 63° (ENE) 03:54:31 137.9125
STRAND 1 23 Jan 03:58:59 04:03:58 55° 50° (NE) 04:09:00 437.568
QB50P1 23 Jan 03:59:08 04:01:51 17° 347° (NNW) 04:04:34 145.935-145.965
Cosmos 2499 23 Jan 04:01:24 04:08:47 61° 54° (NE) 04:15:48 435.465 / 435.565
AUBIESAT-1 23 Jan 04:02:03 04:03:18 11° 271° (W) 04:04:31 437.475
HO-68 23 Jan 04:04:14 04:05:35 10° 52° (NE) 04:06:54 435.675
POLYITAN 1 23 Jan 04:04:14 04:06:55 17° 348° (NNW) 04:09:37 437.675
QB50P2 23 Jan 04:05:34 04:08:15 17° 349° (N) 04:10:55 145.880/145.840
CUSAT 1 23 Jan 04:14:19 04:21:01 68° 307° (NW) 04:28:54 437.405
Gurwin Techsat 1B 23 Jan 04:16:06 04:21:06 42° 319° (NW) 04:26:06 435.225
CUTE-I 23 Jan 04:19:16 04:23:00 19° 78° (ENE) 04:26:43 437.470
CUBESAT XI-V 23 Jan 04:19:41 04:23:50 29° 270° (W) 04:28:00 437.345
YUBILEINY 23 Jan 04:19:43 04:24:48 17° 315° (NW) 04:29:52 435.215
POPSAT HIP 1 23 Jan 04:26:13 04:28:48 16° 353° (N) 04:31:23 437.405
ITAMSAT 1 23 Jan 04:27:36 04:32:48 69° 304° (NW) 04:37:59 435.822/435.867
HORYU 2 23 Jan 04:29:19 04:33:12 28° 92° (E) 04:37:03 437.375
STARS 23 Jan 04:30:01 04:33:32 23° 272° (W) 04:37:04 437.465
DUCHIFAT 1 23 Jan 04:33:15 04:35:48 16° 354° (N) 04:38:20 145.980
NANOSAT C BR1 23 Jan 04:40:18 04:42:49 16° 356° (N) 04:45:21 145.865
UNISAT 6 23 Jan 04:42:36 04:45:41 19° 20° (NNE) 04:48:48 437.425
RS-15 23 Jan 04:43:08 04:55:18 68° 200° (SSW) 05:07:22 29.354- 29.394
GOMX 1 23 Jan 04:47:44 04:52:01 35° 93° (E) 04:56:04 467.674
O/OREOS (USA 219) 23 Jan 04:53:45 04:56:29 16° 105° (ESE) 04:59:13 437.305
TIGRISAT 23 Jan 04:54:50 04:57:59 20° 23° (NNE) 05:01:11 435.000
BUGSAT 1 23 Jan 04:55:54 04:58:17 15° 350° (N) 05:00:41 437.445
BRITE-PL 23 Jan 04:58:57 05:04:10 66° 106° (ESE) 05:08:55 437.365/2234.400
PRISM 23 Jan 04:59:05 05:02:38 27° 37° (NE) 05:06:10 437.425
NOAA 15 23 Jan 05:01:34 05:06:10 28° 88° (E) 05:10:45 137.62
PCSat 23 Jan 05:03:07 05:08:32 67° 192° (SSW) 05:13:56 145.827
Cubesat XI-IV 23 Jan 05:03:19 05:07:56 28° 88° (E) 05:12:32 437.490
ANTELSAT 23 Jan 05:10:32 05:13:51 22° 27° (NNE) 05:17:13 437.575/2403.000
CUTE 1.7 + AOD 2 23 Jan 05:11:05 05:12:13 11° 70° (ENE) 05:13:20 437.475
DOVE 4 23 Jan 05:11:39 05:15:23 28° 90° (E) 05:19:01 437.250
JAS-2 23 Jan 05:11:55 05:17:18 32° 12° (NNE) 05:23:17 435.910
GONETS M04 23 Jan 05:13:25 05:22:19 86° 68° (ENE) 05:31:13
LilacSat-2 23 Jan 05:16:42 05:20:10 30° 94° (E) 05:23:37 437.200
Oscar 19 23 Jan 05:17:40 05:21:56 26° 340° (NNW) 05:26:11 437.125/150
AO-7 23 Jan 05:29:10 05:37:36 79° 313° (NW) 05:45:58 29.400- 29.500
Cosmos 2491 23 Jan 05:29:50 05:37:58 40° 337° (NNW) 05:46:10 435.465 / 435.565
NOAA 18 23 Jan 05:32:00 05:36:40 28° 88° (E) 05:41:19 137.9125
QB50P1 23 Jan 05:33:46 05:36:25 16° 10° (N) 05:39:05 145.935-145.965
DANDE 23 Jan 05:34:57 05:40:23 55° 314° (NW) 05:47:28 436.750
STRAND 1 23 Jan 05:38:10 05:43:14 61° 253° (WSW) 05:48:22 437.568
POLYITAN 1 23 Jan 05:38:50 05:41:31 17° 12° (NNE) 05:44:13 437.675
Cosmos 2504 23 Jan 05:39:31 05:40:11 10° 326° (NW) 05:40:51 435.465 / 435.565
CANX-2 23 Jan 05:39:59 05:42:48 17° 79° (E) 05:45:35 2200.000
QB50P2 23 Jan 05:40:07 05:42:51 17° 13° (NNE) 05:45:34 145.880/145.840
SEEDS 23 Jan 05:44:58 05:47:07 13° 75° (ENE) 05:49:14 437.485
COMPASS 1 23 Jan 05:45:14 05:46:17 11° 71° (ENE) 05:47:18 437.405
HO-68 23 Jan 05:50:27 05:56:19 26° 80° (E) 06:02:09 435.675
AAUSAT CUBESAT 2 23 Jan 05:53:42 05:54:21 10° 70° (ENE) 05:55:00 437.432
Cosmos 2499 23 Jan 05:54:54 06:02:10 64° 262° (W) 06:09:08 435.465 / 435.565
Gurwin Techsat 1B 23 Jan 05:55:49 06:00:11 26° 343° (NNW) 06:04:33 435.225
CUSAT 1 23 Jan 05:57:36 06:04:13 42° 334° (NNW) 06:11:42 437.405
CUTE-I 23 Jan 05:59:07 06:04:20 49° 102° (ESE) 06:09:32 437.470
POPSAT HIP 1 23 Jan 06:00:34 06:03:23 18° 17° (NNE) 06:06:12 437.405
CUBESAT XI-V 23 Jan 06:02:09 06:02:49 10° 294° (WNW) 06:03:29 437.345
HORYU 2 23 Jan 06:05:52 06:10:21 85° 113° (ESE) 06:14:51 437.375
ITAMSAT 1 23 Jan 06:07:08 06:11:48 34° 327° (NNW) 06:16:27 435.822/435.867
DUCHIFAT 1 23 Jan 06:07:29 06:10:17 18° 17° (NNE) 06:13:05 145.980
NANOSAT C BR1 23 Jan 06:14:28 06:17:22 18° 20° (NNE) 06:20:16 145.865
UNISAT 6 23 Jan 06:17:38 06:21:32 35° 44° (NE) 06:25:30 437.425
CINEMA 3 23 Jan 06:18:08 06:21:51 30° 93° (E) 06:25:35 145.822/145.860
GOMX 1 23 Jan 06:25:53 06:30:36 76° 297° (WNW) 06:34:59 467.674
TIGRISAT 23 Jan 06:29:55 06:33:52 37° 46° (NE) 06:37:53 435.000
BUGSAT 1 23 Jan 06:30:01 06:32:28 16° 13° (NNE) 06:34:56 437.445
O/OREOS (USA 219) 23 Jan 06:30:43 06:34:57 43° 128° (SE) 06:39:13 437.305
PRISM 23 Jan 06:33:20 06:37:29 67° 59° (ENE) 06:41:38 437.425
BRITE-PL 23 Jan 06:37:34 06:42:37 49° 310° (NW) 06:47:16 437.365/2234.400
NOAA 15 23 Jan 06:41:25 06:46:47 75° 112° (ESE) 06:52:08 137.62
Cubesat XI-IV 23 Jan 06:43:28 06:48:51 75° 112° (ESE) 06:54:13 437.490
CUTE 1.7 + AOD 2 23 Jan 06:45:29 06:49:24 32° 93° (E) 06:53:19 437.475
ANTELSAT 23 Jan 06:45:47 06:49:51 44° 50° (NE) 06:54:01 437.575/2403.000
PCSat 23 Jan 06:46:24 06:51:32 43° 217° (SW) 06:56:38 145.827
DOVE 4 23 Jan 06:49:20 06:53:42 89° 292° (WNW) 06:57:53 437.250
LilacSat-2 23 Jan 06:50:57 06:54:50 78° 296° (WNW) 06:58:44 437.200
CUBEBUG 2 23 Jan 06:52:03 06:55:32 23° 87° (E) 06:59:05 437.445
RS-15 23 Jan 06:54:59 07:06:26 47° 231° (SW) 07:17:41 29.354- 29.394
JAS-2 23 Jan 06:55:37 07:01:19 47° 38° (NE) 07:07:45 435.910
Oscar 19 23 Jan 06:56:04 07:00:05 23° 5° (N) 07:04:06 437.125/150
FUNcube-1 23 Jan 07:00:50 07:03:37 16° 79° (E) 07:06:25 145.935
QB50P1 23 Jan 07:07:43 07:11:09 25° 33° (NNE) 07:14:35 145.935-145.965
GONETS M04 23 Jan 07:10:26 07:18:43 48° 275° (W) 07:27:01
NOAA 18 23 Jan 07:12:44 07:18:15 72° 112° (ESE) 07:23:43 137.9125
POLYITAN 1 23 Jan 07:12:49 07:16:18 26° 35° (NE) 07:19:47 437.675
UWE-3 23 Jan 07:13:53 07:17:27 25° 88° (E) 07:21:05 435.000/436.395/437.385
QB50P2 23 Jan 07:14:07 07:17:38 26° 36° (NE) 07:21:11 145.880/145.840
CANX-2 23 Jan 07:15:24 07:19:39 50° 102° (ESE) 07:23:52 2200.000
DANDE 23 Jan 07:19:05 07:24:32 35° 342° (NNW) 07:31:18 436.750
COMPASS 1 23 Jan 07:19:18 07:23:08 33° 93° (E) 07:26:59 437.405
STRAND 1 23 Jan 07:19:27 07:23:27 22° 277° (W) 07:27:27 437.568
SEEDS 23 Jan 07:19:53 07:23:57 40° 97° (E) 07:28:00 437.485
AO-7 23 Jan 07:21:51 07:29:55 53° 339° (NNW) 07:37:56 29.400- 29.500
ZACube-1 23 Jan 07:25:33 07:29:00 22° 86° (E) 07:32:30 437.345
AAUSAT CUBESAT 2 23 Jan 07:27:22 07:31:10 31° 93° (E) 07:34:57 437.432
Cosmos 2491 23 Jan 07:29:25 07:37:23 36° 8° (N) 07:45:23 435.465 / 435.565
SO-50 23 Jan 07:29:40 07:32:53 19° 132° (SE) 07:36:04 436.795
POPSAT HIP 1 23 Jan 07:34:34 07:38:14 30° 40° (NE) 07:41:55 437.405
Gurwin Techsat 1B 23 Jan 07:34:46 07:38:57 24° 7° (N) 07:43:09 435.225
HO-68 23 Jan 07:38:29 07:45:37 59° 106° (ESE) 07:52:42 435.675
CUTE-I 23 Jan 07:39:22 07:44:41 67° 305° (NW) 07:49:59 437.470
CUSAT 1 23 Jan 07:41:23 07:48:04 35° 0° (N) 07:55:17 437.405
DUCHIFAT 1 23 Jan 07:41:24 07:45:02 30° 40° (NE) 07:48:42 145.980
HORYU 2 23 Jan 07:42:35 07:46:42 37° 317° (NW) 07:50:49 437.375
ITAMSAT 1 23 Jan 07:46:09 07:50:16 24° 351° (N) 07:54:23 435.822/435.867
Cosmos 2499 23 Jan 07:48:13 07:54:08 28° 289° (WNW) 07:59:53 435.465 / 435.565
NANOSAT C BR1 23 Jan 07:48:28 07:52:13 32° 43° (NE) 07:55:59 145.865
UNISAT 6 23 Jan 07:53:43 07:58:01 88° 244° (WSW) 08:02:24 437.425
CINEMA 3 23 Jan 07:55:18 07:59:29 83° 295° (WNW) 08:03:43 145.822/145.860
Oscar 11 23 Jan 07:56:03 07:59:54 29° 91° (E) 08:03:44 145.826/435.025
BUGSAT 1 23 Jan 08:03:33 08:06:52 25° 36° (NE) 08:10:11 437.445
GOMX 1 23 Jan 08:04:07 08:08:17 31° 321° (NW) 08:12:12 467.674
TIGRISAT 23 Jan 08:06:06 08:10:24 79° 250° (WSW) 08:14:46 435.000
PRISM 23 Jan 08:09:08 08:13:04 39° 261° (W) 08:17:00 437.425
O/OREOS (USA 219) 23 Jan 08:09:41 08:14:12 87° 332° (NNW) 08:18:43 437.305
BRITE-PL 23 Jan 08:15:57 08:20:18 27° 334° (NNW) 08:24:24 437.365/2234.400
DELFI C3 23 Jan 08:16:52 08:19:58 21° 86° (E) 08:23:03 145.870
CUTE 1.7 + AOD 2 23 Jan 08:21:21 08:25:41 80° 294° (WNW) 08:30:00 437.475
NOAA 15 23 Jan 08:21:22 08:26:29 48° 315° (NW) 08:31:35 137.62
ANTELSAT 23 Jan 08:22:17 08:26:33 64° 253° (WSW) 08:30:53 437.575/2403.000
Cubesat XI-IV 23 Jan 08:23:44 08:28:51 48° 315° (NW) 08:33:58 437.490
LilacSat-2 23 Jan 08:25:28 08:28:47 27° 318° (NW) 08:32:05 437.200
DOVE 4 23 Jan 08:27:14 08:31:08 33° 317° (NW) 08:34:55 437.250
CUBEBUG 2 23 Jan 08:28:34 08:32:51 74° 109° (ESE) 08:37:15 437.445
PCSat 23 Jan 08:29:58 08:33:52 20° 241° (WSW) 08:37:46 145.827
Oscar 19 23 Jan 08:33:49 08:38:20 31° 29° (NNE) 08:42:50 437.125/150
FUNcube-1 23 Jan 08:36:37 08:40:51 49° 102° (ESE) 08:45:10 145.935
JAS-2 23 Jan 08:40:11 08:46:04 89° 237° (WSW) 08:52:51 435.910
QB50P1 23 Jan 08:42:15 08:46:23 56° 56° (NE) 08:50:32 145.935-145.965
HUMSAT D 23 Jan 08:44:22 08:47:51 23° 87° (E) 08:51:20 437.325/437.525
POLYITAN 1 23 Jan 08:47:26 08:51:35 60° 58° (ENE) 08:55:45 437.675
QB50P2 23 Jan 08:48:47 08:52:57 63° 58° (ENE) 08:57:09 145.880/145.840
UWE-3 23 Jan 08:50:15 08:54:34 77° 110° (ESE) 08:59:00 435.000/436.395/437.385
CANX-2 23 Jan 08:51:23 08:55:37 54° 304° (NW) 08:59:51 2200.000
ESTCUBE 1 23 Jan 08:53:35 08:54:33 11° 69° (ENE) 08:55:31 437.505/2401.250
NOAA 18 23 Jan 08:53:35 08:58:53 51° 315° (NW) 09:04:09 137.9125
COMPASS 1 23 Jan 08:54:51 08:59:07 78° 295° (WNW) 09:03:21 437.405
SEEDS 23 Jan 08:55:40 08:59:56 65° 300° (WNW) 09:04:10 437.485
ZACube-1 23 Jan 09:01:42 09:06:01 70° 108° (ESE) 09:10:27 437.345
AAUSAT CUBESAT 2 23 Jan 09:02:50 09:07:05 80° 295° (WNW) 09:11:17 437.432
DANDE 23 Jan 09:03:24 09:09:10 33° 9° (N) 09:16:03 436.750
RS-15 23 Jan 09:06:55 09:15:52 25° 261° (W) 09:24:43 29.354- 29.394
GONETS M04 23 Jan 09:07:13 09:13:34 23° 303° (WNW) 09:19:56
SO-50 23 Jan 09:08:10 09:12:26 36° 154° (SSE) 09:16:36 436.795
POPSAT HIP 1 23 Jan 09:09:27 09:13:39 76° 62° (ENE) 09:17:52 437.405
Gurwin Techsat 1B 23 Jan 09:13:08 09:17:50 33° 31° (NNE) 09:22:34 435.225
AO-7 23 Jan 09:13:48 09:21:43 48° 6° (N) 09:29:37 29.400- 29.500
DUCHIFAT 1 23 Jan 09:16:11 09:20:22 77° 62° (ENE) 09:24:34 145.980
HORYU 2 23 Jan 09:19:04 09:22:25 21° 340° (NNW) 09:25:47 437.375
BY70-1 23 Jan 09:19:21 09:21:02 13° 82° (E) 09:22:42 436.1900
CUTE-I 23 Jan 09:19:28 09:24:13 34° 328° (NNW) 09:28:58 437.470
NANOSAT C BR1 23 Jan 09:23:27 09:27:39 87° 70° (ENE) 09:31:54 145.865
ITAMSAT 1 23 Jan 09:24:22 09:28:35 26° 15° (NNE) 09:32:48 435.822/435.867
CUSAT 1 23 Jan 09:24:43 09:31:53 42° 27° (NNE) 09:39:25 437.405
HO-68 23 Jan 09:26:31 09:33:42 72° 310° (NW) 09:40:51 435.675
Cosmos 2491 23 Jan 09:28:01 09:36:31 49° 39° (NE) 09:45:01 435.465 / 435.565
CUBEBUG 1 23 Jan 09:28:50 09:30:23 12° 72° (ENE) 09:31:56 437.445
UNISAT 6 23 Jan 09:31:37 09:35:19 28° 269° (W) 09:39:05 437.425
Oscar 11 23 Jan 09:32:10 09:36:34 90° 34° (NNE) 09:40:59 145.826/435.025
CINEMA 3 23 Jan 09:32:40 09:36:20 31° 318° (NW) 09:40:02 145.822/145.860
BUGSAT 1 23 Jan 09:37:46 09:41:46 62° 58° (ENE) 09:45:45 437.445
GOMX 1 23 Jan 09:41:57 09:45:22 20° 345° (NNW) 09:48:36 467.674
Cosmos 2499 23 Jan 09:42:13 09:44:46 12° 316° (NW) 09:47:17 435.465 / 435.565
TIGRISAT 23 Jan 09:44:13 09:47:45 25° 272° (W) 09:51:22 435.000
PRISM 23 Jan 09:47:38 09:49:30 13° 284° (WNW) 09:51:23 437.425
O/OREOS (USA 219) 23 Jan 09:49:27 09:53:55 63° 356° (N) 09:58:24 437.305
DELFI C3 23 Jan 09:51:26 09:55:29 70° 108° (ESE) 09:59:29 145.870
AISAT 23 Jan 09:53:34 09:55:32 13° 74° (ENE) 09:57:30 437.250
BRITE-PL 23 Jan 09:53:38 09:57:33 21° 358° (N) 10:01:17 437.365/2234.400
CUTE 1.7 + AOD 2 23 Jan 09:57:22 10:01:11 31° 318° (NW) 10:04:59 437.475
YUBILEINY 23 Jan 09:58:03 10:03:11 17° 45° (NE) 10:08:19 435.215
LilacSat-2 23 Jan 09:59:53 10:02:09 15° 340° (NNW) 10:04:26 437.200
ANTELSAT 23 Jan 10:00:54 10:04:07 20° 276° (W) 10:07:23 437.575/2403.000
NOAA 15 23 Jan 10:01:00 10:05:29 28° 339° (NNW) 10:09:58 137.62
Cubesat XI-IV 23 Jan 10:03:40 10:08:09 28° 339° (NNW) 10:12:37 437.490
DOVE 4 23 Jan 10:04:54 10:07:56 19° 341° (NNW) 10:10:54 437.250
CUBEBUG 2 23 Jan 10:05:24 10:09:22 39° 312° (NW) 10:13:25 437.445
Oscar 19 23 Jan 10:11:55 10:17:02 59° 52° (NE) 10:22:10 437.125/150
FUNcube-1 23 Jan 10:13:01 10:17:15 55° 303° (WNW) 10:21:34 145.935
QB50P1 23 Jan 10:18:16 10:22:19 46° 258° (WSW) 10:26:25 145.935-145.965
HUMSAT D 23 Jan 10:19:51 10:24:08 74° 109° (ESE) 10:28:27 437.325/437.525
POLYITAN 1 23 Jan 10:23:34 10:27:36 43° 260° (W) 10:31:39 437.675
QB50P2 23 Jan 10:25:01 10:29:01 41° 261° (W) 10:33:02 145.880/145.840
VELOX 1 23 Jan 10:26:13 10:29:17 18° 82° (E) 10:32:20 145.980
JAS-2 23 Jan 10:26:34 10:32:00 38° 270° (W) 10:38:08 435.910
UWE-3 23 Jan 10:26:55 10:30:54 38° 312° (NW) 10:34:58 435.000/436.395/437.385
CANX-2 23 Jan 10:27:23 10:30:53 24° 327° (NNW) 10:34:22 2200.000
ESTCUBE 1 23 Jan 10:28:46 10:32:51 31° 92° (E) 10:36:54 437.505/2401.250
COMPASS 1 23 Jan 10:30:35 10:34:18 30° 319° (NW) 10:38:00 437.405
SPROUT 23 Jan 10:30:39 10:33:24 16° 80° (E) 10:36:08 437.525
SEEDS 23 Jan 10:31:32 10:35:09 27° 323° (NW) 10:38:45 437.485
NOAA 18 23 Jan 10:34:06 10:38:49 30° 339° (NNW) 10:43:30 137.9125
ZACube-1 23 Jan 10:38:10 10:42:14 42° 310° (NW) 10:46:23 437.345
AAUSAT CUBESAT 2 23 Jan 10:38:30 10:42:12 30° 318° (NW) 10:45:54 437.432
UKube-1 23 Jan 10:40:39 10:42:30 12° 75° (ENE) 10:44:21 .
POPSAT HIP 1 23 Jan 10:46:00 10:49:49 33° 265° (W) 10:53:41 437.405
50 SAT 23 Jan 10:46:32 10:48:52 16° 84° (E) 10:51:14 437.505
DANDE 23 Jan 10:47:07 10:53:34 44° 34° (NE) 11:01:14 436.750
DX 1 23 Jan 10:47:38 10:50:21 16° 80° (E) 10:53:02 434.975-435.025
SO-50 23 Jan 10:47:55 10:52:21 47° 178° (S) 10:56:44 436.795
BY70-1 23 Jan 10:48:46 10:52:05 48° 103° (ESE) 10:55:15 436.1900
Gurwin Techsat 1B 23 Jan 10:51:59 10:57:16 65° 54° (NE) 11:02:33 435.225
DUCHIFAT 1 23 Jan 10:52:39 10:56:27 33° 265° (W) 11:00:16 145.980
HORYU 2 23 Jan 10:54:50 10:57:51 18° 3° (N) 11:00:52 437.375
CUTE-I 23 Jan 10:59:00 11:03:14 25° 353° (N) 11:07:28 437.470
NANOSAT C BR1 23 Jan 11:00:13 11:03:53 29° 267° (W) 11:07:36 145.865
ITAMSAT 1 23 Jan 11:02:20 11:07:09 40° 39° (NE) 11:12:00 435.822/435.867
CUBEBUG 1 23 Jan 11:03:58 11:08:00 35° 96° (E) 11:11:58 437.445
GONETS M04 23 Jan 11:04:12 11:07:00 12° 332° (NNW) 11:09:50
Cosmos 2504 23 Jan 11:04:20 11:09:09 17° 54° (NE) 11:13:47 435.465 / 435.565
AO-7 23 Jan 11:05:28 11:13:42 62° 33° (NNE) 11:21:55 29.400- 29.500
AIST 1 23 Jan 11:06:28 11:08:12 12° 71° (ENE) 11:09:57
CUSAT 1 23 Jan 11:07:22 11:15:07 66° 52° (NE) 11:23:01 437.405
Oscar 11 23 Jan 11:08:29 11:12:27 34° 316° (NW) 11:16:25 145.826/435.025
CINEMA 3 23 Jan 11:09:50 11:12:35 17° 341° (NNW) 11:15:21 145.822/145.860
BUGSAT 1 23 Jan 11:13:33 11:17:23 40° 260° (W) 11:21:12 437.445
HO-68 23 Jan 11:14:08 11:20:52 44° 336° (NNW) 11:27:34 435.675
GOMX 1 23 Jan 11:18:51 11:22:12 19° 9° (N) 11:25:24 467.674
Cosmos 2491 23 Jan 11:25:36 11:34:27 86° 68° (ENE) 11:43:19 435.465 / 435.565
DELFI C3 23 Jan 11:26:25 11:30:11 38° 310° (NW) 11:33:55 145.870
AISAT 23 Jan 11:29:08 11:33:16 37° 97° (E) 11:37:22 437.250
O/OREOS (USA 219) 23 Jan 11:29:11 11:33:42 75° 20° (NNE) 11:38:14 437.305
BRITE-PL 23 Jan 11:30:26 11:34:46 25° 22° (NNE) 11:38:54 437.365/2234.400
CUTE 1.7 + AOD 2 23 Jan 11:33:09 11:36:05 18° 341° (NNW) 11:39:00 437.475
LilacSat-2 23 Jan 11:33:29 11:35:14 13° 3° (N) 11:37:00 437.200
NOAA 15 23 Jan 11:39:55 11:44:08 24° 3° (N) 11:48:21 137.62
DOVE 4 23 Jan 11:41:40 11:44:25 16° 5° (N) 11:47:06 437.250
CUBEBUG 2 23 Jan 11:42:08 11:45:14 20° 334° (NNW) 11:48:22 437.445
Cubesat XI-IV 23 Jan 11:42:52 11:47:04 24° 3° (N) 11:51:16 437.490
TISAT 1 23 Jan 11:46:59 11:49:33 16° 80° (E) 11:52:07 437.305
FUNcube-1 23 Jan 11:49:25 11:52:56 25° 326° (NW) 11:56:29 145.935
YUBILEINY 23 Jan 11:49:43 11:57:23 35° 73° (ENE) 12:05:04 435.215
Oscar 19 23 Jan 11:51:22 11:56:31 57° 255° (WSW) 12:01:40 437.125/150
HUMSAT D 23 Jan 11:55:38 11:59:38 39° 312° (NW) 12:03:38 437.325/437.525
QB50P1 23 Jan 11:56:40 11:59:09 15° 281° (WNW) 12:01:37 145.935-145.965
POLYITAN 1 23 Jan 12:02:14 12:04:30 14° 283° (WNW) 12:06:46 437.675
VELOX 1 23 Jan 12:02:20 12:06:43 54° 105° (ESE) 12:11:03 145.980
CANX-2 23 Jan 12:02:58 12:05:39 16° 350° (N) 12:08:20 2200.000
UWE-3 23 Jan 12:03:28 12:06:34 20° 335° (NNW) 12:09:44 435.000/436.395/437.385
QB50P2 23 Jan 12:03:49 12:05:57 13° 284° (WNW) 12:08:04 145.880/145.840
ESTCUBE 1 23 Jan 12:05:36 12:10:12 88° 298° (WNW) 12:14:46 437.505/2401.250
COMPASS 1 23 Jan 12:06:06 12:08:55 17° 342° (NNW) 12:11:43 437.405
SPROUT 23 Jan 12:06:08 12:10:18 50° 103° (ESE) 12:14:28 437.525
SEEDS 23 Jan 12:07:05 12:09:50 17° 346° (NNW) 12:12:33 437.485
NOAA 18 23 Jan 12:13:54 12:18:22 26° 4° (N) 12:22:50 137.9125
AAUSAT CUBESAT 2 23 Jan 12:13:58 12:16:45 17° 341° (NNW) 12:19:32 437.432
ZACube-1 23 Jan 12:14:33 12:17:47 21° 333° (NNW) 12:21:04 437.345
UKube-1 23 Jan 12:15:44 12:19:47 37° 98° (E) 12:23:49 .
JAS-2 23 Jan 12:15:47 12:19:16 15° 298° (WNW) 12:22:58 435.910
BY70-1 23 Jan 12:19:06 12:22:20 42° 306° (NW) 12:25:28 436.1900
50 SAT 23 Jan 12:19:15 12:22:49 59° 107° (ESE) 12:26:22 437.505
DX 1 23 Jan 12:23:20 12:27:36 48° 103° (ESE) 12:31:48 434.975-435.025
POPSAT HIP 1 23 Jan 12:25:46 12:26:54 11° 288° (WNW) 12:28:03 437.405
BEESAT 23 Jan 12:25:58 12:28:16 13° 73° (ENE) 12:30:33 436.000
SWISSCUBE 23 Jan 12:27:48 12:30:25 14° 75° (ENE) 12:33:00 437.505
SO-50 23 Jan 12:28:03 12:32:20 39° 201° (SSW) 12:36:33 436.795
HORYU 2 23 Jan 12:29:46 12:33:18 24° 27° (NNE) 12:36:51 437.375
DANDE 23 Jan 12:30:14 12:37:16 75° 58° (ENE) 12:45:34 436.750
Gurwin Techsat 1B 23 Jan 12:32:16 12:37:28 51° 258° (WSW) 12:42:42 435.225
DUCHIFAT 1 23 Jan 12:32:28 12:33:26 11° 288° (WNW) 12:34:25 145.980
CUTE-I 23 Jan 12:37:44 12:42:07 27° 17° (NNE) 12:46:29 437.470
CUBEBUG 1 23 Jan 12:40:18 12:44:41 76° 297° (WNW) 12:49:01 437.445
AIST 1 23 Jan 12:40:45 12:44:45 37° 93° (E) 12:48:45
ITAMSAT 1 23 Jan 12:41:09 12:46:22 88° 62° (ENE) 12:51:37 435.822/435.867
Oscar 11 23 Jan 12:44:36 12:47:43 19° 339° (NNW) 12:50:49 145.826/435.025
CINEMA 3 23 Jan 12:46:07 12:48:32 15° 5° (N) 12:50:55 145.822/145.860
CUSAT 1 23 Jan 12:49:34 12:57:21 68° 256° (WSW) 13:05:07 437.405
BUGSAT 1 23 Jan 12:52:03 12:53:51 13° 283° (WNW) 12:55:40 437.445
Cosmos 2504 23 Jan 12:53:09 13:00:30 38° 80° (E) 13:07:25 435.465 / 435.565
GOMX 1 23 Jan 12:55:02 12:59:11 27° 33° (NNE) 13:03:07 467.674
AO-7 23 Jan 12:57:59 13:06:25 81° 239° (WSW) 13:14:53 29.400- 29.500
HO-68 23 Jan 13:01:02 13:07:31 38° 2° (N) 13:14:00 435.675
DELFI C3 23 Jan 13:01:22 13:04:14 19° 333° (NNW) 13:07:05 145.870
AISAT 23 Jan 13:05:40 13:10:05 72° 300° (WNW) 13:14:29 437.250
LilacSat-2 23 Jan 13:05:49 13:08:22 17° 26° (NNE) 13:10:56 437.200
BRITE-PL 23 Jan 13:07:10 13:12:21 42° 45° (NE) 13:17:16 437.365/2234.400
CUTE 1.7 + AOD 2 23 Jan 13:08:07 13:10:41 16° 5° (N) 13:13:16 437.475
O/OREOS (USA 219) 23 Jan 13:08:42 13:13:07 57° 225° (SW) 13:17:33 437.305
AO-85 23 Jan 13:13:31 13:16:02 15° 130° (SE) 13:18:28 145.980
DOVE 4 23 Jan 13:17:30 13:21:00 22° 28° (NNE) 13:24:21 437.250
NOAA 15 23 Jan 13:18:11 13:22:49 31° 27° (NNE) 13:27:28 137.62
CUBEBUG 2 23 Jan 13:18:14 13:20:42 15° 358° (N) 13:23:12 437.445
Cubesat XI-IV 23 Jan 13:21:26 13:26:03 31° 27° (NNE) 13:30:42 437.490
TISAT 1 23 Jan 13:22:06 13:26:11 48° 103° (ESE) 13:30:16 437.305
Cosmos 2491 23 Jan 13:22:39 13:30:52 48° 275° (W) 13:39:07 435.465 / 435.565
FUNcube-1 23 Jan 13:25:26 13:28:06 16° 349° (N) 13:30:49 145.935
MOZHAYETS 4 23 Jan 13:28:33 13:31:22 16° 76° (ENE) 13:34:10
ITUPSAT 1 23 Jan 13:30:39 13:34:43 26° 89° (E) 13:38:46 437.325
HUMSAT D 23 Jan 13:31:20 13:34:28 20° 334° (NNW) 13:37:37 437.325/437.525
Oscar 19 23 Jan 13:33:00 13:36:56 21° 279° (W) 13:40:53 437.125/150
CANX-2 23 Jan 13:37:30 13:40:15 17° 13° (NNE) 13:43:01 2200.000
VELOX 1 23 Jan 13:38:57 13:43:15 52° 308° (NW) 13:47:33 145.980
UWE-3 23 Jan 13:39:21 13:41:52 16° 359° (N) 13:44:24 435.000/436.395/437.385
COMPASS 1 23 Jan 13:40:46 13:43:14 15° 5° (N) 13:45:43 437.405
SEEDS 23 Jan 13:41:41 13:44:16 16° 9° (N) 13:46:52 437.485
SPROUT 23 Jan 13:42:11 13:46:21 53° 305° (NW) 13:50:30 437.525
ESTCUBE 1 23 Jan 13:42:34 13:46:44 35° 318° (NW) 13:50:52 437.505/2401.250
AAUSAT CUBESAT 2 23 Jan 13:48:34 13:51:00 15° 4° (N) 13:53:25 437.432
BY70-1 23 Jan 13:49:39 13:51:58 17° 327° (NNW) 13:54:14 436.1900
